Time,TemperatureF,DewpointF,PressureIn,WindDirection,WindDirectionDegrees,WindSpeedMPH,WindSpeedGustMPH,Humidity,HourlyPrecipIn,Conditions,Clouds,dailyrainin,SoftwareType,DateUTC
2013-09-03 00:13:00,75.5,73.0,29.74,SSE,149,2.0,2.0,90,0.00,,,0.00,weatherlink.com 1.10,2013-09-03 04:13:00,
2013-09-03 00:28:00,75.2,72.0,29.73,SSE,149,0.0,1.0,90,0.00,,,0.00,weatherlink.com 1.10,2013-09-03 04:28:00,
2013-09-03 00:43:00,74.9,72.0,29.73,SSE,149,0.0,3.0,91,0.00,,,0.00,weatherlink.com 1.10,2013-09-03 04:43:00,
2013-09-03 00:58:00,74.6,72.0,29.73,SE,146,0.0,0.0,92,0.00,,,0.00,weatherlink.com 1.10,2013-09-03 04:58:00,
2013-09-03 01:13:00,74.6,72.0,29.75,East,82,0.0,2.0,92,0.00,,,0.00,weatherlink.com 1.10,2013-09-03 05:13:00,
2013-09-03 01:28:00,74.5,72.0,29.75,NNE,20,1.0,4.0,92,0.00,,,0.00,weatherlink.com 1.10,2013-09-03 05:28:00,
2013-09-03 01:43:00,74.4,72.0,29.73,North,353,0.0,3.0,92,0.01,,,0.01,weatherlink.com 1.10,2013-09-03 05:43:00,
2013-09-03 01:58:00,74.0,72.0,29.73,SW,231,0.0,1.0,93,0.01,,,0.01,weatherlink.com 1.10,2013-09-03 05:58:00,
2013-09-03 02:13:00,73.5,71.0,29.73,WSW,243,0.0,1.0,93,0.01,,,0.01,weatherlink.com 1.10,2013-09-03 06:13:00,
2013-09-03 02:28:00,73.1,71.0,29.73,WSW,238,0.0,1.0,93,0.01,,,0.01,weatherlink.com 1.10,2013-09-03 06:28:00,
2013-09-03 02:43:00,72.6,71.0,29.72,WSW,238,0.0,0.0,94,0.00,,,0.01,weatherlink.com 1.10,2013-09-03 06:43:00,
2013-09-03 02:58:00,72.4,71.0,29.72,WSW,238,0.0,0.0,94,0.00,,,0.01,weatherlink.com 1.10,2013-09-03 06:58:00,
2013-09-03 03:13:00,72.0,70.0,29.70,WSW,238,0.0,0.0,94,0.00,,,0.01,weatherlink.com 1.10,2013-09-03 07:13:00,
2013-09-03 03:28:00,71.6,70.0,29.70,WSW,238,0.0,0.0,94,0.00,,,0.01,weatherlink.com 1.10,2013-09-03 07:28:00,
2013-09-03 03:43:00,71.2,70.0,29.71,WSW,238,0.0,0.0,95,0.00,,,0.01,weatherlink.com 1.10,2013-09-03 07:43:00,
2013-09-03 03:58:00,71.2,70.0,29.71,SW,236,0.0,0.0,95,0.00,,,0.01,weatherlink.com 1.10,2013-09-03 07:58:00,
2013-09-03 04:14:00,71.1,70.0,29.71,SW,236,0.0,0.0,95,0.00,,,0.01,weatherlink.com 1.10,2013-09-03 08:14:00,
2013-09-03 04:29:00,70.9,70.0,29.71,SW,234,0.0,0.0,95,0.01,,,0.02,weatherlink.com 1.10,2013-09-03 08:29:00,
2013-09-03 04:45:00,70.8,69.0,29.72,SW,235,0.0,0.0,95,0.01,,,0.02,weatherlink.com 1.10,2013-09-03 08:45:00,
2013-09-03 04:59:00,70.8,69.0,29.71,SW,235,0.0,1.0,95,0.01,,,0.02,weatherlink.com 1.10,2013-09-03 08:59:00,
2013-09-03 05:14:00,70.5,69.0,29.71,SW,235,0.0,0.0,95,0.01,,,0.02,weatherlink.com 1.10,2013-09-03 09:14:00,
2013-09-03 05:29:00,70.3,69.0,29.71,SW,234,0.0,0.0,95,0.00,,,0.02,weatherlink.com 1.10,2013-09-03 09:29:00,
2013-09-03 05:44:00,70.3,69.0,29.72,SW,235,0.0,0.0,95,0.00,,,0.02,weatherlink.com 1.10,2013-09-03 09:44:00,
2013-09-03 05:59:00,70.5,69.0,29.73,SW,235,0.0,0.0,95,0.00,,,0.02,weatherlink.com 1.10,2013-09-03 09:59:00,
2013-09-03 06:14:00,70.4,69.0,29.73,SW,235,0.0,0.0,95,0.00,,,0.02,weatherlink.com 1.10,2013-09-03 10:14:00,
2013-09-03 06:29:00,70.6,69.0,29.73,SW,235,0.0,0.0,95,0.00,,,0.02,weatherlink.com 1.10,2013-09-03 10:29:00,
2013-09-03 06:44:00,70.4,69.0,29.74,NNW,347,0.0,2.0,94,0.00,,,0.02,weatherlink.com 1.10,2013-09-03 10:44:00,
2013-09-03 06:59:00,70.5,69.0,29.74,North,352,0.0,0.0,94,0.00,,,0.02,weatherlink.com 1.10,2013-09-03 10:59:00,
2013-09-03 07:14:00,70.6,69.0,29.75,North,351,0.0,0.0,94,0.00,,,0.02,weatherlink.com 1.10,2013-09-03 11:14:00,
2013-09-03 07:29:00,70.8,69.0,29.75,North,351,0.0,0.0,93,0.00,,,0.02,weatherlink.com 1.10,2013-09-03 11:29:00,
2013-09-03 07:44:00,71.1,69.0,29.75,NNW,342,0.0,0.0,93,0.00,,,0.02,weatherlink.com 1.10,2013-09-03 11:44:00,
2013-09-03 07:59:00,71.6,70.0,29.76,NNW,345,0.0,0.0,93,0.00,,,0.02,weatherlink.com 1.10,2013-09-03 11:59:00,
2013-09-03 08:14:00,72.1,70.0,29.76,NNW,329,0.0,2.0,92,0.00,,,0.02,weatherlink.com 1.10,2013-09-03 12:14:00,
2013-09-03 08:29:00,72.7,70.0,29.77,WNW,302,0.0,3.0,92,0.00,,,0.02,weatherlink.com 1.10,2013-09-03 12:29:00,
2013-09-03 08:44:00,73.5,71.0,29.77,North,11,0.0,3.0,91,0.00,,,0.02,weatherlink.com 1.10,2013-09-03 12:44:00,
2013-09-03 08:59:00,74.9,71.0,29.76,NNE,19,2.0,3.0,88,0.00,,,0.02,weatherlink.com 1.10,2013-09-03 12:59:00,
2013-09-03 09:14:00,75.8,71.0,29.76,NNE,21,2.0,2.0,85,0.00,,,0.02,weatherlink.com 1.10,2013-09-03 13:14:00,
2013-09-03 09:29:00,75.9,71.0,29.76,NNW,329,3.0,5.0,85,0.00,,,0.02,weatherlink.com 1.10,2013-09-03 13:29:00,
2013-09-03 09:44:00,75.5,70.0,29.76,NNE,26,4.0,6.0,84,0.00,,,0.02,weatherlink.com 1.10,2013-09-03 13:44:00,
2013-09-03 09:59:00,75.4,70.0,29.77,NW,316,1.0,5.0,84,0.00,,,0.02,weatherlink.com 1.10,2013-09-03 13:59:00,
2013-09-03 10:14:00,75.8,70.0,29.78,NNE,12,3.0,8.0,82,0.00,,,0.02,weatherlink.com 1.10,2013-09-03 14:14:00,
2013-09-03 10:29:00,75.8,70.0,29.78,North,10,3.0,6.0,82,0.00,,,0.02,weatherlink.com 1.10,2013-09-03 14:29:00,
2013-09-03 10:43:00,75.7,68.0,29.78,NNE,16,7.0,8.0,78,0.00,,,0.02,weatherlink.com 1.10,2013-09-03 14:43:00,
2013-09-03 10:58:00,75.9,69.0,29.78,North,352,3.0,4.0,78,0.00,,,0.02,weatherlink.com 1.10,2013-09-03 14:58:00,
2013-09-03 11:13:00,77.2,68.0,29.78,North,356,1.0,7.0,73,0.00,,,0.02,weatherlink.com 1.10,2013-09-03 15:13:00,
2013-09-03 11:28:00,77.0,68.0,29.78,NNE,12,0.0,4.0,73,0.00,,,0.02,weatherlink.com 1.10,2013-09-03 15:28:00,
2013-09-03 11:43:00,78.7,67.0,29.78,SSE,149,3.0,6.0,67,0.00,,,0.02,weatherlink.com 1.10,2013-09-03 15:43:00,
2013-09-03 11:58:00,79.0,66.0,29.78,NW,310,2.0,6.0,64,0.00,,,0.02,weatherlink.com 1.10,2013-09-03 15:58:00,
2013-09-03 12:13:00,80.4,65.0,29.77,NNW,345,2.0,6.0,59,0.00,,,0.02,weatherlink.com 1.10,2013-09-03 16:13:00,
2013-09-03 12:28:00,81.7,64.0,29.78,North,354,1.0,6.0,56,0.00,,,0.02,weatherlink.com 1.10,2013-09-03 16:28:00,
2013-09-03 12:43:00,81.0,64.0,29.78,NNE,26,3.0,5.0,56,0.00,,,0.02,weatherlink.com 1.10,2013-09-03 16:43:00,
2013-09-03 12:58:00,80.5,63.0,29.79,ENE,77,2.0,5.0,55,0.00,,,0.02,weatherlink.com 1.10,2013-09-03 16:58:00,
2013-09-03 13:14:00,80.6,62.0,29.78,NNE,20,1.0,5.0,54,0.00,,,0.02,weatherlink.com 1.10,2013-09-03 17:14:00,
2013-09-03 13:29:00,82.2,63.0,29.78,NE,49,2.0,7.0,52,0.00,,,0.02,weatherlink.com 1.10,2013-09-03 17:29:00,
2013-09-03 13:44:00,82.5,62.0,29.78,SE,146,1.0,6.0,50,0.00,,,0.02,weatherlink.com 1.10,2013-09-03 17:44:00,
2013-09-03 13:59:00,83.8,63.0,29.78,NE,54,2.0,8.0,50,0.00,,,0.02,weatherlink.com 1.10,2013-09-03 17:59:00,
2013-09-03 14:14:00,83.8,63.0,29.77,NW,308,3.0,8.0,49,0.00,,,0.02,weatherlink.com 1.10,2013-09-03 18:14:00,
2013-09-03 14:29:00,84.0,63.0,29.77,NE,51,2.0,5.0,50,0.00,,,0.02,weatherlink.com 1.10,2013-09-03 18:29:00,
2013-09-03 14:44:00,84.3,64.0,29.77,SSE,156,1.0,9.0,50,0.00,,,0.02,weatherlink.com 1.10,2013-09-03 18:44:00,
2013-09-03 14:59:00,82.2,63.0,29.76,NNE,25,3.0,6.0,52,0.00,,,0.02,weatherlink.com 1.10,2013-09-03 18:59:00,
2013-09-03 15:14:00,81.5,63.0,29.76,NNW,346,1.0,6.0,54,0.00,,,0.02,weatherlink.com 1.10,2013-09-03 19:14:00,
2013-09-03 15:29:00,82.5,63.0,29.75,NNE,25,5.0,6.0,52,0.00,,,0.02,weatherlink.com 1.10,2013-09-03 19:29:00,
2013-09-03 15:44:00,83.7,62.0,29.75,NNE,27,4.0,9.0,48,0.00,,,0.02,weatherlink.com 1.10,2013-09-03 19:44:00,
2013-09-03 15:59:00,83.0,61.0,29.75,NNE,32,2.0,7.0,48,0.00,,,0.02,weatherlink.com 1.10,2013-09-03 19:59:00,
2013-09-03 16:14:00,82.6,61.0,29.75,ENE,77,2.0,7.0,48,0.00,,,0.02,weatherlink.com 1.10,2013-09-03 20:14:00,
2013-09-03 16:29:00,82.3,61.0,29.75,NE,46,2.0,7.0,48,0.00,,,0.02,weatherlink.com 1.10,2013-09-03 20:29:00,
2013-09-03 16:44:00,82.3,61.0,29.75,SSE,167,2.0,5.0,48,0.00,,,0.02,weatherlink.com 1.10,2013-09-03 20:44:00,
2013-09-03 16:59:00,82.2,61.0,29.76,SE,124,2.0,7.0,48,0.00,,,0.02,weatherlink.com 1.10,2013-09-03 20:59:00,
2013-09-03 17:14:00,81.7,61.0,29.76,NNE,16,3.0,7.0,50,0.00,,,0.02,weatherlink.com 1.10,2013-09-03 21:14:00,
2013-09-03 17:29:00,81.4,61.0,29.76,SE,131,2.0,4.0,51,0.00,,,0.02,weatherlink.com 1.10,2013-09-03 21:29:00,
2013-09-03 17:44:00,81.0,61.0,29.77,NNW,340,0.0,4.0,51,0.00,,,0.02,weatherlink.com 1.10,2013-09-03 21:44:00,
2013-09-03 17:59:00,80.8,60.0,29.77,NE,40,1.0,5.0,50,0.00,,,0.02,weatherlink.com 1.10,2013-09-03 21:59:00,
2013-09-03 18:14:00,80.9,59.0,29.78,SE,146,4.0,6.0,47,0.00,,,0.02,weatherlink.com 1.10,2013-09-03 22:14:00,
2013-09-03 18:29:00,80.3,59.0,29.78,SE,124,1.0,7.0,48,0.00,,,0.02,weatherlink.com 1.10,2013-09-03 22:29:00,
2013-09-03 18:44:00,79.4,59.0,29.78,NNE,25,3.0,5.0,49,0.00,,,0.02,weatherlink.com 1.10,2013-09-03 22:44:00,
2013-09-03 18:59:00,79.0,60.0,29.79,North,1,1.0,5.0,52,0.00,,,0.02,weatherlink.com 1.10,2013-09-03 22:59:00,
2013-09-03 19:14:00,78.5,59.0,29.80,NW,318,1.0,7.0,52,0.00,,,0.02,weatherlink.com 1.10,2013-09-03 23:14:00,
2013-09-03 19:29:00,77.6,58.0,29.80,NW,316,4.0,10.0,52,0.00,,,0.02,weatherlink.com 1.10,2013-09-03 23:29:00,
2013-09-03 19:44:00,77.0,58.0,29.81,NNE,19,2.0,7.0,52,0.00,,,0.02,weatherlink.com 1.10,2013-09-03 23:44:00,
2013-09-03 20:00:00,76.7,58.0,29.82,NE,40,3.0,5.0,52,0.00,,,0.02,weatherlink.com 1.10,2013-09-04 00:00:00,
2013-09-03 20:14:00,76.3,58.0,29.82,NNW,338,2.0,6.0,53,0.00,,,0.02,weatherlink.com 1.10,2013-09-04 00:14:00,
2013-09-03 20:29:00,75.8,57.0,29.83,SE,127,1.0,8.0,53,0.00,,,0.02,weatherlink.com 1.10,2013-09-04 00:29:00,
2013-09-03 20:44:00,75.2,58.0,29.84,NNW,348,0.0,4.0,55,0.00,,,0.02,weatherlink.com 1.10,2013-09-04 00:44:00,
2013-09-03 20:59:00,74.5,58.0,29.84,NE,39,0.0,5.0,56,0.00,,,0.02,weatherlink.com 1.10,2013-09-04 00:59:00,
2013-09-03 21:14:00,73.7,58.0,29.85,North,353,1.0,4.0,58,0.00,,,0.02,weatherlink.com 1.10,2013-09-04 01:14:00,
2013-09-03 21:29:00,73.0,58.0,29.85,NE,39,2.0,4.0,60,0.00,,,0.02,weatherlink.com 1.10,2013-09-04 01:29:00,
2013-09-03 21:44:00,72.5,58.0,29.86,NNE,32,3.0,3.0,61,0.00,,,0.02,weatherlink.com 1.10,2013-09-04 01:44:00,
2013-09-03 21:59:00,72.1,59.0,29.86,NE,39,0.0,2.0,63,0.00,,,0.02,weatherlink.com 1.10,2013-09-04 01:59:00,
2013-09-03 22:14:00,71.5,59.0,29.87,NNW,332,2.0,2.0,64,0.00,,,0.02,weatherlink.com 1.10,2013-09-04 02:14:00,
2013-09-03 22:29:00,71.3,59.0,29.88,NE,39,0.0,2.0,65,0.00,,,0.02,weatherlink.com 1.10,2013-09-04 02:29:00,
2013-09-03 22:44:00,71.1,59.0,29.88,North,355,0.0,2.0,66,0.00,,,0.02,weatherlink.com 1.10,2013-09-04 02:44:00,
2013-09-03 22:59:00,70.7,59.0,29.88,NW,315,1.0,2.0,67,0.00,,,0.02,weatherlink.com 1.10,2013-09-04 02:59:00,
2013-09-03 23:14:00,70.4,59.0,29.88,NNW,342,0.0,3.0,68,0.00,,,0.02,weatherlink.com 1.10,2013-09-04 03:14:00,
2013-09-03 23:29:00,70.1,59.0,29.88,NW,321,0.0,2.0,68,0.00,,,0.02,weatherlink.com 1.10,2013-09-04 03:29:00,
2013-09-03 23:44:00,69.8,59.0,29.88,North,349,1.0,3.0,68,0.00,,,0.02,weatherlink.com 1.10,2013-09-04 03:44:00,
2013-09-03 23:59:00,69.4,59.0,29.88,NE,36,2.0,5.0,69,0.00,,,0.02,weatherlink.com 1.10,2013-09-04 03:59:00,